QPF
0.05 0.02 0.03 0.07 0.08 0.09 0.07 0.06 0.06 0.08 0.10 0.11 0.08 0.08 0.11 0.15 0.17 0.15 0.12 0.11 0.10 0.10 0.10 0.09 0.10 0.10 0.10 0.11 0.13 0.13 0.11 0.09 0.11 0.09 0.12 0.19 0.24 0.29 0.25 0.22 0.22 0.18 0.13
0.03 0.02 0.04 0.05 0.06 0.09 0.11 0.10 0.07 0.09 0.10 0.10 0.09 0.08 0.09 0.14 0.15 0.14 0.12 0.12 0.10 0.10 0.10 0.10 0.10 0.12 0.11 0.14 0.14 0.16 0.15 0.14 0.13 0.12 0.12 0.17 0.18 0.16 0.13 0.20 0.23 0.17 0.11
0.03 0.03 0.04 0.03 0.04 0.06 0.11 0.17 0.11 0.09 0.09 0.08 0.07 0.06 0.08 0.12 0.13 0.13 0.12 0.12 0.11 0.10 0.10 0.12 0.12 0.14 0.13 0.13 0.13 0.13 0.13 0.13 0.13 0.18 0.18 0.13 0.08 0.07 0.07 0.10 0.16 0.15 0.12
0.04 0.04 0.04 0.03 0.04 0.05 0.09 0.16 0.16 0.09 0.09 0.07 0.07 0.07 0.10 0.16 0.20 0.15 0.12 0.13 0.12 0.10 0.09 0.09 0.09 0.10 0.09 0.08 0.09 0.10 0.11 0.12 0.10 0.14 0.19 0.13 0.08 0.06 0.07 0.08 0.09 0.11 0.11
0.02 0.02 0.03 0.04 0.06 0.07 0.08 0.14 0.18 0.09 0.08 0.06 0.07 0.10 0.12 0.14 0.23 0.18 0.12 0.11 0.10 0.08 0.08 0.08 0.07 0.08 0.07 0.06 0.07 0.08 0.08 0.09 0.11 0.11 0.12 0.13 0.10 0.09 0.08 0.07 0.09 0.10 0.10
0.01 0.01 0.03 0.04 0.08 0.08 0.07 0.14 0.18 0.11 0.09 0.07 0.08 0.10 0.16 0.17 0.17 0.12 0.11 0.10 0.09 0.08 0.08 0.08 0.07 0.08 0.08 0.06 0.06 0.07 0.08 0.08 0.11 0.13 0.13 0.12 0.11 0.10 0.08 0.08 0.10 0.09 0.10
0.01 0.01 0.03 0.06 0.09 0.09 0.10 0.18 0.17 0.12 0.09 0.08 0.10 0.08 0.12 0.14 0.11 0.09 0.09 0.09 0.11 0.09 0.08 0.06 0.07 0.06 0.06 0.06 0.06 0.06 0.06 0.07 0.09 0.11 0.14 0.13 0.12 0.11 0.10 0.11 0.11 0.08 0.09
0.01 0.02 0.05 0.09 0.10 0.09 0.13 0.21 0.18 0.13 0.08 0.05 0.08 0.10 0.11 0.12 0.11 0.10 0.09 0.11 0.12 0.09 0.06 0.06 0.07 0.06 0.05 0.05 0.05 0.05 0.05 0.04 0.04 0.07 0.09 0.10 0.11 0.12 0.13 0.12 0.11 0.09 0.09
0.01 0.02 0.05 0.11 0.14 0.14 0.15 0.14 0.12 0.12 0.10 0.07 0.06 0.10 0.15 0.20 0.20 0.17 0.15 0.13 0.10 0.08 0.06 0.05 0.06 0.06 0.05 0.05 0.04 0.04 0.04 0.03 0.03 0.05 0.06 0.08 0.10 0.11 0.11 0.10 0.10 0.10 0.08
0.03 0.02 0.03 0.06 0.10 0.11 0.11 0.10 0.09 0.08 0.08 0.10 0.10 0.13 0.19 0.23 0.26 0.26 0.21 0.17 0.13 0.08 0.05 0.06 0.06 0.06 0.06 0.05 0.04 0.04 0.03 0.03 0.03 0.04 0.06 0.06 0.08 0.08 0.09 0.09 0.10 0.09 0.07
0.03 0.02 0.03 0.04 0.05 0.06 0.07 0.07 0.07 0.05 0.04 0.07 0.09 0.08 0.08 0.15 0.16 0.17 0.16 0.14 0.11 0.07 0.06 0.06 0.05 0.05 0.05 0.03 0.03 0.02 0.02 0.02 0.02 0.03 0.07 0.08 0.07 0.08 0.09 0.09 0.09 0.08 0.09
0.03 0.03 0.03 0.03 0.04 0.04 0.05 0.05 0.05 0.04 0.03 0.04 0.05 0.05 0.05 0.07 0.08 0.07 0.07 0.06 0.05 0.05 0.05 0.05 0.04 0.04 0.04 0.03 0.02 0.01 0.02 0.02 0.02 0.04 0.07 0.10 0.09 0.08 0.08 0.08 0.08 0.09 0.10
0.04 0.04 0.03 0.04 0.04 0.04 0.05 0.04 0.04 0.04 0.04 0.04 0.03 0.04 0.05 0.05 0.04 0.03 0.04 0.03 0.02 0.02 0.02 0.03 0.03 0.04 0.04 0.03 0.03 0.02 0.04 0.04 0.03 0.04 0.08 0.10 0.10 0.10 0.09 0.08 0.07 0.06 0.06
0.04 0.04 0.04 0.04 0.05 0.05 0.04 0.05 0.03 0.03 0.03 0.04 0.04 0.03 0.04 0.03 0.03 0.02 0.03 0.04 0.04 0.03 0.02 0.02 0.03 0.03 0.02 0.01 0.03 0.04 0.05 0.05 0.06 0.07 0.10 0.08 0.06 0.07 0.07 0.07 0.05 0.04 0.04
0.03 0.03 0.05 0.04 0.04 0.05 0.04 0.05 0.03 0.03 0.05 0.04 0.03 0.03 0.02 0.02 0.03 0.03 0.02 0.03 0.03 0.03 0.02 0.02 0.02 0.02 0.01 0.01 0.02 0.03 0.03 0.04 0.05 0.07 0.07 0.05 0.05 0.06 0.06 0.06 0.06 0.05 0.04
0.02 0.03 0.04 0.03 0.04 0.04 0.03 0.03 0.05 0.04 0.07 0.05 0.02 0.02 0.01 0.01 0.02 0.02 0.01 0.02 0.02 0.02 0.02 0.02 0.02 0.02 0.02 0.03 0.02 0.01 0.02 0.04 0.05 0.06 0.06 0.04 0.04 0.05 0.05 0.05 0.06 0.06 0.06
0.02 0.02 0.02 0.02 0.03 0.03 0.04 0.05 0.04 0.04 0.06 0.06 0.02 0.01 0.01 0.01 0.01 0.00 0.01 0.01 0.01 0.01 0.01 0.02 0.02 0.02 0.02 0.04 0.04 0.01 0.02 0.03 0.05 0.07 0.07 0.05 0.04 0.05 0.06 0.05 0.07 0.07 0.06
0.03 0.03 0.02 0.01 0.02 0.03 0.04 0.05 0.04 0.03 0.04 0.06 0.03 0.02 0.01 0.01 0.01 0.00 0.01 0.00 0.00 0.00 0.01 0.02 0.02 0.02 0.02 0.04 0.04 0.02 0.03 0.03 0.04 0.06 0.08 0.06 0.05 0.05 0.06 0.07 0.06 0.07 0.07
0.03 0.04 0.03 0.02 0.03 0.04 0.05 0.05 0.03 0.02 0.02 0.05 0.03 0.02 0.01 0.01 0.01 0.00 0.00 0.00 0.00 0.00 0.01 0.01 0.02 0.03 0.03 0.03 0.04 0.03 0.03 0.03 0.03 0.04 0.06 0.07 0.05 0.04 0.05 0.08 0.09 0.10 0.10
0.01 0.02 0.02 0.02 0.04 0.05 0.05 0.04 0.04 0.02 0.02 0.04 0.06 0.02 0.01 0.01 0.00 0.00 0.00 0.00 0.00 0.00 0.00 0.01 0.01 0.03 0.04 0.03 0.03 0.03 0.03 0.03 0.03 0.03 0.04 0.05 0.06 0.06 0.05 0.05 0.08 0.10 0.10
0.01 0.01 0.02 0.03 0.04 0.06 0.07 0.07 0.06 0.04 0.03 0.03 0.06 0.05 0.02 0.01 0.00 0.00 0.00 0.00 0.00 0.00 0.00 0.00 0.01 0.02 0.02 0.03 0.03 0.04 0.04 0.04 0.03 0.03 0.04 0.04 0.04 0.04 0.06 0.06 0.04 0.05 0.06
0.01 0.01 0.01 0.01 0.02 0.05 0.09 0.10 0.07 0.04 0.02 0.02 0.03 0.05 0.03 0.01 0.00 0.00 0.00 0.00 0.00 0.01 0.01 0.01 0.01 0.02 0.03 0.03 0.03 0.03 0.04 0.04 0.03 0.03 0.04 0.05 0.04 0.04 0.05 0.06 0.07 0.05 0.03
0.02 0.01 0.01 0.01 0.01 0.01 0.03 0.07 0.07 0.03 0.02 0.02 0.02 0.03 0.03 0.01 0.01 0.00 0.00 0.00 0.00 0.01 0.01 0.01 0.02 0.02 0.02 0.03 0.03 0.03 0.03 0.04 0.03 0.03 0.03 0.04 0.05 0.04 0.04 0.04 0.05 0.05 0.04
0.02 0.01 0.01 0.01 0.01 0.01 0.02 0.02 0.03 0.02 0.02 0.02 0.02 0.03 0.03 0.02 0.01 0.00 0.00 0.00 0.00 0.01 0.01 0.01 0.01 0.01 0.01 0.02 0.03 0.03 0.03 0.02 0.03 0.04 0.04 0.03 0.04 0.04 0.04 0.03 0.04 0.04 0.04
0.02 0.02 0.01 0.02 0.03 0.02 0.02 0.02 0.04 0.03 0.03 0.03 0.03 0.02 0.02 0.02 0.01 0.00 0.00 0.00 0.00 0.01 0.01 0.00 0.00 0.01 0.01 0.02 0.02 0.02 0.03 0.03 0.02 0.03 0.04 0.03 0.03 0.03 0.04 0.04 0.04 0.04 0.04
0.01 0.02 0.02 0.02 0.03 0.03 0.02 0.03 0.04 0.04 0.05 0.05 0.04 0.03 0.03 0.01 0.01 0.01 0.01 0.01 0.01 0.01 0.01 0.00 0.00 0.00 0.01 0.01 0.01 0.02 0.02 0.03 0.03 0.03 0.03 0.04 0.04 0.03 0.03 0.04 0.04 0.04 0.03
MSLP
1010.71 1010.27 1009.88 1009.63 1009.53 1009.56 1009.65 1009.74 1009.76 1009.68 1009.49 1009.22 1008.93 1008.66 1008.44 1008.30 1008.23 1008.19 1008.16 1008.11 1008.02 1007.90 1007.76 1007.63 1007.52 1007.45 1007.42 1007.41 1007.41 1007.40 1007.39 1007.38 1007.38 1007.40 1007.46 1007.56 1007.69 1007.84 1008.00 1008.16 1008.32 1008.48 1008.65
1010.92 1010.49 1010.13 1009.89 1009.81 1009.84 1009.93 1010.01 1010.02 1009.92 1009.72 1009.45 1009.16 1008.91 1008.71 1008.59 1008.53 1008.50 1008.46 1008.40 1008.31 1008.18 1008.05 1007.94 1007.85 1007.81 1007.79 1007.80 1007.81 1007.81 1007.80 1007.79 1007.78 1007.81 1007.88 1007.99 1008.13 1008.29 1008.46 1008.62 1008.78 1008.93 1009.10
1011.09 1010.67 1010.32 1010.11 1010.04 1010.09 1010.18 1010.26 1010.26 1010.16 1009.96 1009.70 1009.43 1009.19 1009.01 1008.90 1008.84 1008.81 1008.76 1008.69 1008.59 1008.47 1008.35 1008.25 1008.19 1008.17 1008.18 1008.20 1008.21 1008.21 1008.19 1008.17 1008.18 1008.21 1008.30 1008.43 1008.59 1008.77 1008.95 1009.13 1009.29 1009.45 1009.62
1011.20 1010.80 1010.48 1010.29 1010.25 1010.30 1010.40 1010.48 1010.48 1010.38 1010.19 1009.95 1009.70 1009.48 1009.32 1009.21 1009.15 1009.10 1009.05 1008.97 1008.87 1008.76 1008.66 1008.59 1008.56 1008.57 1008.59 1008.61 1008.62 1008.61 1008.58 1008.56 1008.56 1008.61 1008.71 1008.87 1009.06 1009.26 1009.47 1009.66 1009.83 1009.99 1010.16
1011.29 1010.90 1010.61 1010.46 1010.44 1010.51 1010.62 1010.69 1010.69 1010.59 1010.41 1010.18 1009.95 1009.74 1009.58 1009.48 1009.41 1009.35 1009.29 1009.22 1009.13 1009.05 1008.99 1008.96 1008.96 1008.99 1009.03 1009.05 1009.05 1009.02 1008.98 1008.95 1008.95 1009.01 1009.13 1009.31 1009.52 1009.75 1009.97 1010.17 1010.35 1010.51 1010.68
1011.40 1011.04 1010.78 1010.66 1010.67 1010.75 1010.86 1010.93 1010.91 1010.81 1010.62 1010.39 1010.16 1009.96 1009.80 1009.69 1009.62 1009.56 1009.50 1009.44 1009.38 1009.34 1009.32 1009.35 1009.39 1009.45 1009.49 1009.50 1009.48 1009.43 1009.37 1009.32 1009.32 1009.39 1009.54 1009.73 1009.97 1010.21 1010.44 1010.64 1010.82 1010.98 1011.13
1011.62 1011.27 1011.04 1010.95 1010.98 1011.07 1011.16 1011.21 1011.17 1011.04 1010.84 1010.60 1010.36 1010.16 1009.99 1009.87 1009.79 1009.73 1009.68 1009.64 1009.62 1009.62 1009.66 1009.73 1009.82 1009.89 1009.94 1009.94 1009.90 1009.82 1009.73 1009.68 1009.68 1009.76 1009.92 1010.14 1010.38 1010.63 1010.86 1011.06 1011.22 1011.36 1011.51
1011.96 1011.64 1011.44 1011.37 1011.40 1011.47 1011.54 1011.55 1011.47 1011.31 1011.09 1010.83 1010.59 1010.37 1010.19 1010.06 1009.96 1009.90 1009.85 1009.83 1009.85 1009.90 1009.98 1010.09 1010.21 1010.30 1010.34 1010.33 1010.26 1010.15 1010.05 1009.99 1010.00 1010.10 1010.27 1010.50 1010.76 1011.01 1011.23 1011.41 1011.55 1011.68 1011.81
1012.47 1012.17 1011.99 1011.93 1011.94 1011.99 1012.02 1011.98 1011.85 1011.65 1011.40 1011.13 1010.87 1010.64 1010.45 1010.30 1010.19 1010.11 1010.06 1010.04 1010.07 1010.15 1010.26 1010.40 1010.53 1010.63 1010.66 1010.63 1010.54 1010.42 1010.31 1010.25 1010.27 1010.39 1010.59 1010.83 1011.10 1011.35 1011.56 1011.72 1011.84 1011.95 1012.06
1013.09 1012.82 1012.66 1012.60 1012.60 1012.60 1012.57 1012.47 1012.30 1012.07 1011.80 1011.52 1011.25 1011.02 1010.82 1010.66 1010.52 1010.40 1010.32 1010.29 1010.31 1010.38 1010.50 1010.63 1010.76 1010.85 1010.87 1010.82 1010.72 1010.60 1010.49 1010.45 1010.50 1010.64 1010.87 1011.14 1011.42 1011.67 1011.86 1012.00 1012.10 1012.19 1012.30
1013.78 1013.56 1013.42 1013.35 1013.32 1013.27 1013.18 1013.02 1012.81 1012.55 1012.28 1012.01 1011.76 1011.54 1011.33 1011.15 1010.98 1010.82 1010.69 1010.60 1010.57 1010.60 1010.69 1010.80 1010.90 1010.97 1010.98 1010.92 1010.82 1010.71 1010.63 1010.61 1010.70 1010.88 1011.14 1011.43 1011.72 1011.97 1012.15 1012.28 1012.36 1012.44 1012.54
1014.47 1014.29 1014.19 1014.11 1014.04 1013.94 1013.79 1013.59 1013.35 1013.09 1012.83 1012.59 1012.38 1012.18 1011.99 1011.79 1011.58 1011.36 1011.16 1010.99 1010.89 1010.85 1010.86 1010.92 1010.98 1011.02 1011.01 1010.96 1010.87 1010.78 1010.73 1010.76 1010.89 1011.11 1011.40 1011.71 1012.02 1012.27 1012.46 1012.57 1012.65 1012.72 1012.81
1015.08 1014.97 1014.89 1014.82 1014.71 1014.57 1014.37 1014.14 1013.89 1013.64 1013.43 1013.25 1013.09 1012.93 1012.76 1012.55 1012.31 1012.02 1011.74 1011.47 1011.27 1011.13 1011.06 1011.04 1011.05 1011.05 1011.02 1010.97 1010.90 1010.85 1010.84 1010.91 1011.08 1011.34 1011.66 1012.00 1012.32 1012.58 1012.77 1012.89 1012.96 1013.03 1013.13
1015.56 1015.52 1015.48 1015.41 1015.29 1015.11 1014.88 1014.63 1014.39 1014.19 1014.03 1013.92 1013.83 1013.74 1013.60 1013.39 1013.11 1012.77 1012.40 1012.04 1011.72 1011.47 1011.30 1011.20 1011.14 1011.10 1011.06 1011.01 1010.96 1010.94 1010.97 1011.09 1011.29 1011.58 1011.92 1012.28 1012.60 1012.87 1013.07 1013.20 1013.29 1013.38 1013.49
1015.89 1015.92 1015.92 1015.86 1015.72 1015.53 1015.29 1015.05 1014.84 1014.68 1014.59 1014.56 1014.55 1014.52 1014.42 1014.23 1013.93 1013.55 1013.11 1012.66 1012.24 1011.89 1011.63 1011.44 1011.31 1011.23 1011.16 1011.11 1011.07 1011.07 1011.14 1011.28 1011.51 1011.81 1012.16 1012.52 1012.86 1013.14 1013.35 1013.51 1013.62 1013.73 1013.86
1016.08 1016.16 1016.20 1016.15 1016.02 1015.83 1015.60 1015.38 1015.21 1015.11 1015.09 1015.13 1015.19 1015.21 1015.16 1014.99 1014.70 1014.29 1013.81 1013.30 1012.81 1012.39 1012.04 1011.77 1011.58 1011.45 1011.35 1011.28 1011.25 1011.26 1011.34 1011.49 1011.72 1012.02 1012.36 1012.72 1013.05 1013.34 1013.58 1013.76 1013.91 1014.06 1014.23
1016.15 1016.27 1016.33 1016.31 1016.20 1016.02 1015.82 1015.63 1015.51 1015.46 1015.50 1015.59 1015.70 1015.77 1015.75 1015.61 1015.33 1014.94 1014.45 1013.92 1013.40 1012.93 1012.52 1012.20 1011.95 1011.77 1011.63 1011.54 1011.49 1011.49 1011.56 1011.70 1011.91 1012.19 1012.51 1012.85 1013.17 1013.47 1013.72 1013.95 1014.15 1014.35 1014.56
1016.14 1016.28 1016.36 1016.36 1016.27 1016.13 1015.97 1015.83 1015.75 1015.74 1015.81 1015.93 1016.06 1016.15 1016.15 1016.04 1015.80 1015.43 1014.98 1014.47 1013.96 1013.48 1013.06 1012.70 1012.41 1012.18 1012.00 1011.87 1011.78 1011.75 1011.79 1011.90 1012.08 1012.32 1012.60 1012.91 1013.22 1013.51 1013.79 1014.05 1014.30 1014.56 1014.82
1016.08 1016.23 1016.31 1016.33 1016.29 1016.19 1016.08 1015.99 1015.94 1015.95 1016.03 1016.14 1016.26 1016.35 1016.36 1016.27 1016.06 1015.76 1015.36 1014.92 1014.46 1014.01 1013.60 1013.23 1012.91 1012.65 1012.42 1012.24 1012.11 1012.05 1012.04 1012.10 1012.23 1012.42 1012.66 1012.92 1013.20 1013.48 1013.77 1014.07 1014.37 1014.68 1015.01
1016.01 1016.13 1016.22 1016.26 1016.26 1016.21 1016.16 1016.11 1016.09 1016.11 1016.17 1016.25 1016.33 1016.38 1016.38 1016.30 1016.14 1015.90 1015.59 1015.24 1014.87 1014.48 1014.11 1013.76 1013.44 1013.14 1012.88 1012.65 1012.48 1012.36 1012.30 1012.31 1012.39 1012.52 1012.70 1012.91 1013.15 1013.42 1013.71 1014.03 1014.37 1014.73 1015.11
1015.92 1016.03 1016.11 1016.17 1016.20 1016.21 1016.21 1016.20 1016.20 1016.22 1016.24 1016.26 1016.28 1016.28 1016.24 1016.17 1016.05 1015.88 1015.67 1015.43 1015.16 1014.87 1014.57 1014.25 1013.93 1013.63 1013.33 1013.07 1012.86 1012.69 1012.59 1012.55 1012.57 1012.64 1012.76 1012.92 1013.12 1013.36 1013.63 1013.95 1014.31 1014.71 1015.13
1015.84 1015.92 1016.00 1016.07 1016.13 1016.19 1016.23 1016.26 1016.27 1016.27 1016.25 1016.20 1016.15 1016.08 1016.00 1015.92 1015.83 1015.73 1015.62 1015.49 1015.34 1015.15 1014.92 1014.66 1014.37 1014.06 1013.76 1013.48 1013.24 1013.04 1012.90 1012.82 1012.79 1012.82 1012.88 1012.98 1013.13 1013.32 1013.57 1013.88 1014.24 1014.64 1015.08
1015.76 1015.82 1015.88 1015.95 1016.04 1016.13 1016.21 1016.27 1016.29 1016.26 1016.19 1016.08 1015.95 1015.82 1015.69 1015.59 1015.53 1015.49 1015.46 1015.44 1015.39 1015.30 1015.16 1014.96 1014.71 1014.42 1014.13 1013.84 1013.59 1013.39 1013.23 1013.12 1013.06 1013.04 1013.05 1013.10 1013.19 1013.33 1013.54 1013.81 1014.15 1014.55 1014.99
1015.67 1015.71 1015.75 1015.82 1015.91 1016.02 1016.12 1016.19 1016.22 1016.18 1016.07 1015.91 1015.72 1015.52 1015.36 1015.24 1015.19 1015.19 1015.23 1015.29 1015.33 1015.32 1015.25 1015.11 1014.91 1014.66 1014.39 1014.13 1013.89 1013.69 1013.54 1013.42 1013.34 1013.29 1013.25 1013.25 1013.28 1013.37 1013.53 1013.76 1014.07 1014.45 1014.88
1015.59 1015.60 1015.62 1015.66 1015.74 1015.84 1015.95 1016.03 1016.05 1016.00 1015.87 1015.68 1015.44 1015.21 1015.01 1014.88 1014.83 1014.86 1014.94 1015.05 1015.15 1015.21 1015.20 1015.11 1014.96 1014.76 1014.53 1014.30 1014.10 1013.92 1013.79 1013.68 1013.59 1013.51 1013.44 1013.39 1013.37 1013.40 1013.51 1013.70 1013.98 1014.33 1014.74
1015.49 1015.47 1015.45 1015.45 1015.50 1015.58 1015.67 1015.75 1015.77 1015.72 1015.59 1015.38 1015.13 1014.88 1014.66 1014.52 1014.47 1014.50 1014.60 1014.74 1014.87 1014.96 1014.99 1014.95 1014.84 1014.68 1014.50 1014.33 1014.17 1014.04 1013.93 1013.83 1013.74 1013.65 1013.55 1013.45 1013.39 1013.38 1013.44 1013.59 1013.84 1014.18 1014.57
Thickness
5779 5780 5779 5780 5780 5781 5781 5782 5782 5782 5782 5782 5783 5782 5783 5782 5782 5781 5780 5780 5779 5778 5777 5777 5776 5776 5776 5776 5775 5775 5776 5776 5775 5775 5774 5776 5777 5777 5775 5775 5775 5775 5773
5780 5778 5777 5778 5778 5778 5779 5779 5779 5779 5779 5779 5780 5780 5780 5780 5779 5778 5778 5777 5777 5776 5775 5774 5774 5773 5773 5773 5772 5773 5773 5773 5773 5773 5772 5772 5773 5773 5773 5772 5773 5772 5772
5780 5777 5775 5775 5776 5776 5776 5776 5776 5776 5775 5776 5776 5776 5777 5777 5776 5776 5775 5774 5774 5773 5773 5772 5771 5771 5770 5770 5769 5770 5770 5771 5771 5770 5770 5769 5769 5770 5770 5769 5769 5769 5768
5779 5776 5773 5772 5772 5773 5773 5773 5772 5772 5772 5772 5773 5773 5773 5773 5773 5772 5772 5771 5770 5770 5770 5769 5769 5768 5767 5767 5766 5767 5767 5768 5768 5768 5767 5767 5767 5766 5767 5766 5766 5766 5765
5777 5773 5770 5769 5770 5770 5770 5770 5769 5768 5768 5768 5769 5769 5770 5771 5770 5769 5768 5767 5767 5766 5766 5766 5765 5765 5764 5764 5764 5764 5764 5765 5765 5765 5764 5763 5763 5763 5763 5763 5763 5762 5762
5774 5771 5768 5767 5767 5767 5767 5766 5766 5765 5764 5764 5765 5765 5765 5766 5766 5765 5764 5764 5763 5763 5762 5762 5762 5761 5761 5761 5761 5761 5761 5762 5762 5761 5761 5760 5759 5759 5759 5759 5759 5759 5759
5772 5769 5766 5765 5765 5765 5764 5762 5762 5761 5761 5760 5761 5761 5760 5761 5761 5760 5760 5759 5759 5758 5758 5758 5758 5757 5758 5758 5758 5758 5758 5759 5759 5758 5757 5756 5756 5756 5756 5755 5755 5755 5755
5770 5767 5764 5762 5762 5761 5760 5759 5758 5757 5757 5756 5756 5756 5756 5756 5755 5755 5755 5754 5754 5754 5754 5754 5754 5753 5754 5754 5754 5755 5755 5756 5756 5755 5753 5753 5752 5752 5752 5752 5751 5751 5751
5769 5766 5763 5760 5759 5757 5756 5755 5754 5754 5753 5753 5753 5752 5752 5751 5751 5751 5750 5750 5750 5749 5749 5749 5749 5749 5750 5750 5751 5751 5752 5751 5751 5750 5750 5749 5749 5748 5748 5748 5747 5747 5747
5766 5765 5762 5760 5758 5755 5753 5751 5751 5750 5750 5750 5749 5749 5748 5747 5747 5747 5746 5746 5745 5745 5745 5745 5745 5745 5746 5747 5747 5747 5748 5747 5747 5745 5745 5744 5744 5744 5744 5744 5743 5743 5743
5761 5762 5761 5759 5756 5754 5751 5749 5748 5747 5747 5746 5746 5745 5745 5744 5744 5743 5742 5742 5741 5741 5741 5741 5741 5741 5742 5743 5744 5744 5744 5743 5742 5741 5740 5740 5740 5740 5740 5739 5739 5739 5738
5753 5757 5758 5756 5754 5752 5750 5747 5746 5745 5744 5744 5743 5743 5742 5741 5741 5739 5738 5738 5738 5738 5737 5738 5738 5738 5738 5740 5740 5740 5740 5739 5738 5737 5735 5735 5736 5736 5735 5735 5734 5734 5734
5751 5753 5754 5754 5752 5750 5747 5745 5744 5743 5742 5742 5741 5740 5739 5738 5737 5736 5735 5734 5734 5734 5734 5734 5734 5734 5735 5736 5736 5736 5736 5734 5733 5732 5731 5731 5731 5731 5731 5730 5730 5730 5730
5748 5749 5751 5751 5749 5747 5745 5743 5741 5740 5739 5738 5737 5737 5737 5736 5735 5733 5732 5732 5731 5731 5731 5730 5730 5731 5731 5732 5732 5732 5731 5730 5728 5727 5726 5726 5726 5726 5726 5726 5726 5725 5725
5744 5745 5747 5748 5747 5745 5742 5741 5738 5737 5736 5735 5734 5734 5733 5732 5731 5731 5729 5728 5728 5727 5727 5727 5726 5726 5726 5726 5727 5727 5726 5725 5723 5722 5721 5721 5721 5722 5722 5721 5721 5721 5721
5743 5743 5744 5744 5743 5742 5739 5737 5736 5734 5732 5731 5731 5730 5730 5728 5728 5727 5725 5724 5723 5723 5723 5723 5722 5721 5721 5721 5720 5721 5721 5720 5719 5718 5717 5716 5716 5717 5717 5717 5717 5716 5716
5742 5742 5741 5740 5740 5739 5736 5735 5733 5732 5730 5728 5727 5727 5726 5725 5724 5723 5721 5719 5719 5719 5719 5718 5717 5717 5716 5715 5715 5715 5716 5716 5715 5714 5712 5712 5711 5711 5712 5712 5712 5711 5711
5742 5740 5738 5738 5736 5735 5733 5731 5730 5728 5727 5725 5724 5723 5722 5721 5720 5719 5716 5715 5715 5714 5714 5713 5711 5710 5709 5709 5709 5710 5710 5710 5710 5710 5709 5708 5707 5706 5706 5706 5706 5706 5705
5740 5738 5735 5734 5732 5730 5729 5728 5726 5725 5723 5721 5720 5719 5718 5717 5716 5714 5712 5711 5710 5709 5709 5708 5706 5704 5703 5703 5703 5704 5704 5704 5704 5705 5704 5704 5703 5701 5701 5700 5700 5700 5700
5738 5736 5733 5731 5728 5726 5725 5723 5721 5719 5718 5717 5716 5714 5713 5712 5711 5710 5708 5707 5706 5704 5703 5702 5700 5700 5699 5699 5700 5699 5698 5699 5699 5699 5699 5699 5698 5697 5696 5696 5695 5694 5694
5735 5732 5730 5727 5725 5722 5718 5716 5712 5710 5711 5711 5710 5710 5709 5708 5707 5706 5704 5703 5701 5699 5698 5697 5696 5695 5694 5695 5693 5691 5692 5694 5694 5694 5694 5694 5693 5693 5693 5692 5691 5690 5689
5730 5728 5727 5724 5721 5718 5715 5713 5710 5708 5707 5707 5706 5705 5704 5704 5703 5702 5700 5698 5697 5695 5693 5692 5691 5688 5688 5690 5687 5683 5680 5681 5685 5689 5689 5688 5688 5689 5688 5688 5687 5686 5683
5727 5725 5724 5721 5718 5715 5713 5710 5707 5704 5702 5700 5700 5700 5700 5699 5698 5697 5696 5694 5692 5690 5688 5687 5686 5684 5681 5683 5684 5681 5675 5671 5675 5680 5682 5683 5684 5683 5683 5683 5683 5681 5679
5724 5724 5722 5719 5716 5713 5710 5705 5701 5697 5694 5695 5696 5696 5696 5695 5693 5692 5690 5689 5688 5686 5683 5683 5682 5681 5678 5676 5678 5680 5679 5676 5670 5668 5673 5677 5679 5678 5678 5678 5678 5676 5675
5723 5721 5719 5716 5713 5710 5707 5703 5698 5695 5693 5693 5692 5691 5690 5689 5688 5687 5685 5684 5682 5681 5679 5678 5678 5677 5676 5673 5672 5672 5672 5673 5672 5666 5663 5667 5670 5672 5673 5673 5673 5672 5671
5719 5717 5714 5711 5708 5706 5703 5699 5695 5692 5689 5687 5685 5684 5683 5683 5682 5681 5680 5679 5677 5676 5675 5674 5674 5673 5672 5671 5670 5669 5667 5665 5664 5664 5661 5661 5662 5665 5668 5669 5668 5668 5666